CW6666 Weather Reports


Display with metric or nautical units.
time (UTC)temp
F
wind
direction
speed
MPH
gust
MPH
rain 1hr
in
rain 24hr
in
rain mn
in
humidity
%
barometer
mb
20140822074835 84 35 0.0 0.0 0.00 0.02 0.02 86 1006.4
20140822074422 84 35 0.0 2.0 0.00 0.02 0.02 86 1006.4
20140822073847 84 38 0.0 4.0 0.00 0.02 0.02 86 1006.4
20140822073416 84 39 0.0 4.0 0.00 0.02 0.02 86 1006.4
20140822072910 84 40 2.0 6.0 0.00 0.02 0.02 86 1006.4
20140822072346 84 40 5.0 6.0 0.00 0.02 0.02 85 1006.4
20140822071927 84 47 4.0 5.0 0.00 0.02 0.02 85 1006.4
20140822071356 84 37 3.0 7.0 0.00 0.02 0.02 85 1006.6
20140822070841 84 38 4.0 7.0 0.00 0.02 0.02 85 1006.6
20140822070420 84 39 3.0 5.0 0.00 0.02 0.02 85 1006.6
20140822065845 84 39 3.0 6.0 0.00 0.02 0.02 84 1006.6
20140822065418 84 40 4.0 6.0 0.00 0.02 0.02 83 1006.6
20140822064857 85 42 4.0 5.0 0.00 0.02 0.02 82 1006.6
20140822063918 86 36 4.0 6.0 0.00 0.02 0.02 82 1006.6
20140822063335 86 87 1.0 3.0 0.00 0.02 0.02 82 1006.6
20140822062408 85 165 1.0 4.0 0.00 0.02 0.02 83 1006.6
20140822061900 85 135 3.0 4.0 0.00 0.02 0.02 83 1006.6
20140822061345 85 157 1.0 3.0 0.00 0.02 0.02 83 1006.9
20140822060846 85 171 0.0 4.0 0.00 0.02 0.02 85 1006.9
20140822060418 85 171 1.0 4.0 0.00 0.02 0.02 86 1006.9
20140822055836 84 144 1.0 3.0 0.00 0.02 0.02 87 1007.1
20140822055425 84 68 2.0 2.0 0.01 0.02 0.02 86 1007.1
20140822054857 84 55 1.0 2.0 0.01 0.02 0.02 87 1007.1
20140822054332 83 30 0.0 0.0 0.01 0.02 0.02 87 1007.0
20140822053906 83 30 0.0 0.0 0.01 0.02 0.02 87 1007.0
20140822053336 83 30 0.0 3.0 0.01 0.02 0.02 87 1007.0
20140822051405 83 296 0.0 0.0 0.01 0.02 0.02 88 1007.4
20140822050849 83 296 0.0 2.0 0.01 0.02 0.02 87 1007.4
20140822050420 83 296 1.0 2.0 0.01 0.02 0.02 86 1007.4
20140822045844 83 296 0.0 1.0 0.01 0.02 0.02 86 1007.5
20140822045408 83 296 0.0 2.0 0.00 0.01 0.01 86 1007.5
20140822044839 83 296 1.0 3.0 0.00 0.01 0.01 85 1007.5
20140822044424 83 296 2.0 4.0 0.00 0.01 0.01 85 1007.5
20140822043903 83 302 3.0 4.0 0.00 0.01 0.01 84 1007.5
20140822043341 83 301 2.0 7.0 0.00 0.01 0.01 83 1007.5
20140822042840 84 299 6.0 7.0 0.00 0.01 0.01 82 1007.5
20140822042410 84 279 0.0 10.0 0.00 0.01 0.01 81 1007.5
20140822041839 85 287 1.0 13.0 0.00 0.01 0.01 80 1007.5
20140822040849 87 240 2.0 6.0 0.00 0.01 0.01 77 1007.5
20140822040409 86 182 2.0 5.0 0.00 0.01 0.01 80 1007.5
20140822035847 86 51 0.0 4.0 0.00 0.01 0.01 81 1007.5
20140822035425 86 51 2.0 7.0 0.00 0.01 0.01 82 1007.5
20140822034904 86 100 4.0 7.0 0.00 0.01 0.01 83 1007.5
20140822034352 86 93 4.0 10.0 0.00 0.01 0.01 83 1007.5
20140822033852 86 100 7.0 10.0 0.00 0.01 0.01 83 1007.5
20140822033412 86 134 5.0 8.0 0.00 0.01 0.01 83 1007.5
20140822032844 86 117 6.0 8.0 0.00 0.01 0.01 82 1007.7
20140822032426 86 91 4.0 7.0 0.00 0.01 0.01 81 1007.7
20140822031904 86 130 5.0 7.0 0.00 0.01 0.01 81 1007.7
20140822031356 87 100 4.0 6.0 0.00 0.01 0.01 79 1007.9
20140822030857 87 103 5.0 6.0 0.00 0.01 0.01 77 1007.9
20140822030346 87 115 0.0 5.0 0.00 0.01 0.01 76 1007.9
20140822025358 87 154 1.0 3.0 0.00 0.01 0.01 79 1008.1
20140822024838 86 167 0.0 1.0 0.00 0.01 0.01 78 1008.1
20140822024421 86 167 0.0 1.0 0.00 0.01 0.01 78 1008.0
20140822023903 86 209 0.0 1.0 0.00 0.01 0.01 77 1008.0
20140822023347 86 209 0.0 1.0 0.00 0.01 0.01 78 1008.0
20140822022931 86 207 0.0 1.0 0.00 0.01 0.01 79 1008.5
20140822022353 86 299 0.0 4.0 0.00 0.01 0.01 78 1008.5
20140822021855 86 311 2.0 4.0 0.00 0.01 0.01 77 1008.5
20140822021416 86 307 2.0 3.0 0.00 0.01 0.01 77 1008.8
20140822020419 86 287 2.0 3.0 0.00 0.01 0.01 77 1008.8
20140822015844 86 263 0.0 4.0 0.00 0.01 0.01 78 1009.0
20140822015422 86 225 2.0 9.0 0.00 0.01 0.01 78 1009.0
20140822014852 86 319 7.0 9.0 0.00 0.01 0.01 78 1009.0
20140822014425 86 306 3.0 7.0 0.00 0.01 0.01 76 1009.0
20140822013911 86 302 1.0 3.0 0.00 0.01 0.01 78 1009.0
20140822013338 86 232 1.0 3.0 0.00 0.01 0.01 79 1009.0
20140822012930 85 243 1.0 3.0 0.00 0.01 0.01 80 1009.1
20140822012409 85 232 0.0 6.0 0.00 0.01 0.01 80 1009.1
20140822011856 86 284 1.0 6.0 0.00 0.01 0.01 78 1009.1
20140822011427 86 206 6.0 6.0 0.00 0.01 0.01 78 1009.0
20140822010918 86 215 2.0 4.0 0.00 0.01 0.01 78 1009.0
20140822010335 86 207 3.0 6.0 0.00 0.01 0.01 78 1009.0
20140822005932 86 245 3.0 8.0 0.00 0.01 0.01 80 1009.1
20140822005426 86 197 2.0 8.0 0.00 0.01 0.01 81 1009.1
20140822004406 87 220 5.0 7.0 0.00 0.01 0.01 80 1009.0
20140822003839 86 76 2.0 3.0 0.00 0.01 0.01 81 1009.0
20140822002914 87 46 3.0 4.0 0.00 0.01 0.01 82 1009.0
20140822002358 87 44 3.0 4.0 0.00 0.01 0.01 83 1009.0
20140822001831 86 44 0.0 0.0 0.00 0.02 0.01 82 1009.0
20140822001409 86 44 0.0 4.0 0.00 0.02 0.01 82 1009.1
20140822000839 86 44 2.0 4.0 0.00 0.02 0.01 82 1009.1
20140821235841 86 44 0.0 3.0 0.00 0.02 0.01 83 1009.1
20140821233916 86 44 0.0 3.0 0.00 0.02 0.01 83 1009.0
20140821233347 86 43 0.0 3.0 0.00 0.02 0.01 82 1009.0
20140821232834 86 42 0.0 2.0 0.00 0.02 0.01 82 1009.0
20140821232405 86 35 0.0 0.0 0.00 0.02 0.01 83 1009.0
20140821231840 86 32 0.0 0.0 0.00 0.05 0.01 83 1009.0
20140821231406 86 27 0.0 0.0 0.00 0.05 0.01 83 1009.0
20140821230850 85 27 0.0 0.0 0.00 0.05 0.01 83 1009.0
20140821225847 85 20 0.0 0.0 0.00 0.05 0.01 86 1009.0
20140821225410 85 20 0.0 0.0 0.00 0.05 0.01 87 1009.0
20140821224841 84 19 0.0 0.0 0.00 0.05 0.01 87 1009.0
20140821224421 84 19 0.0 0.0 0.00 0.05 0.01 88 1009.1
20140821223900 83 119 0.0 0.0 0.00 0.05 0.01 89 1009.1
20140821223350 83 119 0.0 0.0 0.00 0.05 0.01 90 1009.1
20140821222832 82 119 0.0 0.0 0.01 0.05 0.01 90 1009.1
20140821222420 82 119 0.0 0.0 0.01 0.05 0.01 91 1009.1
20140821221904 81 119 0.0 0.0 0.01 0.07 0.01 92 1009.1
20140821221329 81 119 0.0 0.0 0.01 0.07 0.01 92 1009.0
20140821220916 80 119 0.0 0.0 0.01 0.07 0.01 93 1009.0
20140821220340 80 119 0.0 0.0 0.01 0.07 0.01 93 1009.0
20140821215931 80 119 0.0 0.0 0.01 0.07 0.01 93 1009.0
20140821215357 79 119 0.0 0.0 0.01 0.07 0.01 94 1009.0
20140821214834 79 119 0.0 0.0 0.01 0.07 0.01 94 1009.0
20140821214404 78 119 0.0 0.0 0.01 0.07 0.01 94 1008.9
20140821213838 78 119 0.0 5.0 0.01 0.07 0.01 94 1008.9
20140821212402 78 300 0.0 0.0 0.00 0.06 0.00 94 1008.7
20140821211843 78 300 0.0 0.0 0.00 0.06 0.00 94 1008.7
20140821211425 78 300 0.0 0.0 0.00 0.06 0.00 94 1008.5
20140821210855 77 300 0.0 0.0 0.00 0.06 0.00 94 1008.5
20140821210349 77 300 0.0 0.0 0.00 0.06 0.00 94 1008.5
20140821205926 77 300 0.0 0.0 0.00 0.06 0.00 94 1008.1
20140821205357 77 300 0.0 0.0 0.00 0.06 0.00 94 1008.1
20140821204833 77 300 0.0 0.0 0.00 0.06 0.00 94 1008.1
20140821204409 76 300 0.0 0.0 0.00 0.06 0.00 94 1008.0
20140821203845 76 300 0.0 0.0 0.00 0.06 0.00 94 1008.0
20140821203427 76 300 0.0 0.0 0.00 0.06 0.00 94 1008.0
20140821202358 76 300 0.0 0.0 0.00 0.06 0.00 94 1008.0
20140821201843 76 300 0.0 0.0 0.00 0.06 0.00 94 1008.0
20140821201418 76 300 0.0 0.0 0.00 0.06 0.00 94 1007.9
20140821200859 76 300 0.0 0.0 0.00 0.06 0.00 94 1007.9
20140821200344 76 300 0.0 0.0 0.00 0.06 0.00 94 1007.9
20140821195834 76 300 0.0 0.0 0.00 0.06 0.00 94 1007.9
20140821195403 76 300 0.0 0.0 0.00 0.06 0.00 94 1007.9
20140821194847 76 300 0.0 0.0 0.00 0.06 0.00 94 1007.9
20140821193913 76 300 0.0 0.0 0.00 0.06 0.00 94 1007.7
20140821193340 76 300 0.0 0.0 0.00 0.06 0.00 94 1007.7
20140821192926 76 300 0.0 0.0 0.00 0.06 0.00 94 1007.6
20140821192337 76 300 0.0 0.0 0.00 0.06 0.00 94 1007.6
20140821190401 76 300 0.0 0.0 0.00 0.06 0.00 94 1007.4
20140821185840 76 300 0.0 0.0 0.00 0.06 0.00 94 1007.4
20140821185427 76 300 0.0 0.0 0.00 0.06 0.00 94 1007.4
20140821184400 76 300 0.0 0.0 0.00 0.06 0.00 94 1007.2
20140821183839 76 300 0.0 0.0 0.00 0.06 0.00 94 1007.2
20140821182409 76 300 0.0 0.0 0.00 0.06 0.00 94 1007.4
20140821181847 76 300 0.0 0.0 0.00 0.06 0.00 94 1007.4
20140821181429 76 300 0.0 0.0 0.00 0.06 0.00 94 1007.4
20140821180857 76 300 0.0 0.0 0.00 0.06 0.00 94 1007.4
20140821180338 76 300 0.0 0.0 0.00 0.06 0.00 94 1007.4
20140821175404 76 300 0.0 0.0 0.00 0.06 0.00 94 1007.4
20140821174839 76 300 0.0 0.0 0.00 0.06 0.00 94 1007.4
20140821173911 76 300 0.0 0.0 0.00 0.06 0.00 94 1007.4
20140821173354 76 300 0.0 0.0 0.00 0.06 0.00 94 1007.4
20140821172844 76 300 0.0 0.0 0.00 0.06 0.00 94 1007.3
20140821172411 76 300 0.0 0.0 0.00 0.06 0.00 94 1007.3
20140821171838 76 300 0.0 0.0 0.00 0.06 0.00 94 1007.3
20140821171413 76 300 0.0 0.0 0.00 0.06 0.00 94 1007.4
20140821170855 76 300 0.0 0.0 0.00 0.06 0.00 94 1007.4
20140821170341 76 300 0.0 0.0 0.00 0.06 0.00 94 1007.4
20140821165929 76 300 0.0 0.0 0.00 0.06 0.00 94 1007.4
20140821165401 76 300 0.0 0.0 0.00 0.06 0.00 94 1007.4
20140821164852 77 300 0.0 0.0 0.00 0.06 0.00 94 1007.4
20140821163912 77 300 0.0 0.0 0.00 0.06 0.00 94 1007.5
20140821163356 77 300 0.0 0.0 0.00 0.06 0.00 94 1007.5
20140821162834 77 300 0.0 0.0 0.00 0.06 0.00 94 1007.5
20140821161406 77 300 0.0 0.0 0.00 0.06 0.00 94 1007.6
20140821160857 77 300 0.0 0.0 0.00 0.06 0.00 94 1007.6
20140821160418 77 300 0.0 0.0 0.00 0.06 0.00 94 1007.6
20140821155837 77 300 0.0 0.0 0.00 0.06 0.00 94 1007.7
20140821155332 77 300 0.0 0.0 0.00 0.06 0.00 94 1007.7
20140821154842 77 300 0.0 0.0 0.00 0.06 0.00 94 1007.7
20140821154334 77 300 0.0 0.0 0.00 0.06 0.00 94 1007.5
20140821153841 77 300 0.0 0.0 0.00 0.06 0.00 94 1007.5
20140821153336 77 300 0.0 0.0 0.00 0.06 0.00 94 1007.5
20140821152842 77 300 0.0 0.0 0.00 0.06 0.00 94 1007.5
20140821152333 77 300 0.0 0.0 0.00 0.06 0.00 94 1007.5
20140821151839 77 300 0.0 0.0 0.00 0.06 0.00 94 1007.5
20140821151331 77 300 0.0 0.0 0.00 0.06 0.00 94 1007.5
20140821150837 77 300 0.0 0.0 0.00 0.06 0.00 94 1007.5
20140821150350 77 300 0.0 0.0 0.00 0.06 0.00 94 1007.5
20140821145834 77 300 0.0 0.0 0.00 0.06 0.00 93 1007.8
20140821145348 77 300 0.0 0.0 0.00 0.06 0.00 93 1007.8
20140821144835 77 300 0.0 0.0 0.00 0.06 0.00 94 1007.8
20140821144348 77 300 0.0 1.0 0.00 0.06 0.00 94 1008.0
20140821143833 77 300 0.0 1.0 0.00 0.06 0.00 94 1008.0
20140821143345 77 300 0.0 0.0 0.00 0.06 0.00 93 1008.0
20140821142832 77 300 0.0 0.0 0.00 0.06 0.00 93 1008.0
20140821142344 77 300 0.0 0.0 0.00 0.06 0.00 94 1008.0
20140821141833 77 300 0.0 0.0 0.00 0.06 0.00 93 1008.0
20140821141344 77 300 0.0 0.0 0.00 0.06 0.00 93 1008.2
20140821140841 77 300 0.0 0.0 0.00 0.06 0.00 93 1008.2
20140821140333 77 300 0.0 0.0 0.00 0.06 0.00 93 1008.2
20140821135411 77 300 0.0 0.0 0.00 0.06 0.06 93 1008.4
20140821134858 77 300 0.0 0.0 0.00 0.06 0.06 93 1008.4
20140821134334 77 300 0.0 0.0 0.00 0.06 0.06 93 1008.5
20140821132353 77 300 0.0 0.0 0.00 0.06 0.06 93 1008.5
20140821131834 77 300 0.0 0.0 0.00 0.06 0.06 93 1008.5
20140821130912 77 300 0.0 0.0 0.00 0.06 0.06 93 1008.5
20140821130345 77 300 0.0 0.0 0.00 0.06 0.06 93 1008.5
20140821125408 77 300 0.0 0.0 0.00 0.06 0.06 93 1008.5
20140821124840 78 300 0.0 0.0 0.00 0.06 0.06 93 1008.5
20140821123914 78 300 0.0 0.0 0.00 0.06 0.06 93 1008.5
20140821123351 78 300 0.0 0.0 0.00 0.06 0.06 93 1008.5
20140821122830 78 300 0.0 0.0 0.00 0.06 0.06 93 1008.5
20140821122406 78 300 0.0 0.0 0.00 0.06 0.06 92 1008.5
20140821121855 78 300 0.0 0.0 0.00 0.06 0.06 92 1008.5
20140821121426 78 300 0.0 0.0 0.00 0.06 0.06 92 1008.5
20140821120917 78 300 0.0 0.0 0.00 0.06 0.06 92 1008.5
20140821120334 78 300 0.0 0.0 0.00 0.06 0.06 92 1008.5
20140821115911 78 300 0.0 0.0 0.00 0.06 0.06 92 1008.5
20140821115342 78 300 0.0 0.0 0.00 0.06 0.06 93 1008.5
20140821114846 78 300 0.0 0.0 0.00 0.06 0.06 93 1008.5
20140821114412 78 300 0.0 2.0 0.00 0.06 0.06 93 1008.5
20140821113848 78 300 0.0 2.0 0.00 0.06 0.06 92 1008.5
20140821113418 78 300 0.0 0.0 0.00 0.06 0.06 92 1008.5
20140821112842 78 300 0.0 0.0 0.00 0.06 0.06 92 1008.4
20140821111909 78 300 0.0 0.0 0.00 0.06 0.06 92 1008.4
20140821111425 78 300 0.0 0.0 0.00 0.06 0.06 92 1008.1
20140821105929 78 300 0.0 0.0 0.00 0.06 0.06 92 1008.0
20140821105352 78 300 0.0 0.0 0.00 0.06 0.06 92 1008.0
20140821104839 78 300 0.0 0.0 0.00 0.06 0.06 92 1008.0
20140821104343 78 300 0.0 0.0 0.00 0.06 0.06 91 1007.9
20140821103829 78 300 0.0 0.0 0.00 0.06 0.06 91 1007.9
20140821103415 78 300 0.0 0.0 0.00 0.06 0.06 91 1007.9
20140821102900 78 300 0.0 0.0 0.00 0.06 0.06 91 1007.6
20140821102359 78 300 0.0 0.0 0.00 0.06 0.06 91 1007.6
20140821101832 79 300 0.0 0.0 0.00 0.06 0.06 91 1007.6
20140821100830 79 300 0.0 0.0 0.00 0.06 0.06 91 1007.6
20140821095846 79 300 0.0 0.0 0.00 0.06 0.06 90 1007.6
20140821094917 79 300 0.0 0.0 0.00 0.06 0.06 90 1007.6
20140821094343 79 300 0.0 0.0 0.00 0.06 0.06 90 1007.4
20140821093839 79 300 0.0 0.0 0.00 0.06 0.06 90 1007.4
20140821093410 80 300 0.0 0.0 0.00 0.06 0.06 89 1007.4
20140821092355 80 300 0.0 0.0 0.00 0.06 0.06 89 1007.1
20140821091846 80 300 0.0 0.0 0.00 0.06 0.06 88 1007.1
20140821091426 81 300 0.0 0.0 0.00 0.06 0.06 88 1007.0
20140821090906 81 300 0.0 0.0 0.00 0.06 0.06 88 1007.0
20140821090334 81 300 0.0 0.0 0.00 0.06 0.06 87 1007.0
20140821085915 81 300 0.0 0.0 0.00 0.06 0.06 87 1006.8
20140821085343 82 300 0.0 0.0 0.00 0.06 0.06 86 1006.8
20140821084830 82 300 0.0 0.0 0.00 0.06 0.06 85 1006.8
20140821084356 83 300 0.0 0.0 0.00 0.06 0.06 85 1006.8
20140821083839 83 300 0.0 0.0 0.00 0.06 0.06 84 1006.8
20140821083418 83 300 0.0 0.0 0.00 0.06 0.06 83 1006.8
20140821082910 84 300 0.0 0.0 0.00 0.06 0.06 82 1006.6
20140821082345 84 300 0.0 0.0 0.00 0.06 0.06 81 1006.6
20140821081836 84 300 0.0 0.0 0.00 0.06 0.06 81 1006.6
20140821081400 84 300 0.0 0.0 0.00 0.06 0.06 81 1006.4
20140821080843 84 300 0.0 0.0 0.00 0.06 0.06 80 1006.4
20140821075912 85 300 0.0 0.0 0.00 0.06 0.06 79 1006.4
20140821075330 85 300 0.0 0.0 0.00 0.06 0.06 79 1006.4